Weather History for KASE - March, 2013

Change the Weather History Date:

Saturday, March 16, 2013

  Actual Average Record
Temperature  
Mean Temperature 38 °F 31 °F  
Max Temperature 45 °F 43 °F 64 °F (2015)
Min Temperature 30 °F 19 °F 3 °F (2008)
Degree Days  
Heating Degree Days 27 34  
Month to date heating degree days 529 584  
Since 1 July heating degree days 6545 6903  
Cooling Degree Days 0 0  
Month to date cooling degree days 0 0  
Year to date cooling degree days 0 0  
Moisture  
Dew Point 29 °F    
Average Humidity 70    
Maximum Humidity 85    
Minimum Humidity 54    
Precipitation  
Precipitation 0.03 in 0.04 in 0.25 in (1984)
Month to date precipitation 0.46 0.62  
Year to date precipitation 1.61 2.86  
Snow  
Snow 0.00 in - - ()
Snow Depth 0.00 in    
Sea Level Pressure  
Sea Level Pressure 29.84 in    
Wind  
Wind Speed 6 mph (South)    
Max Wind Speed 22 mph    
Max Gust Speed 26 mph    
Visibility 9 miles    
Events Rain    
T = Trace of Precipitation, MM = Missing Value Source: NWS Daily Summary

Daily Weather History Graph

Daily Weather History Graph

Search for Another Location

Airport or City:

Trip Planner

Search our weather history database for the weather conditions in past years. The results will help you decide how hot, cold, wet, or windy it might be!

Date:

Astronomy

Mar. 16, 2013 Rise Set
Actual Time 7:16 AM MDT 7:15 PM MDT
Civil Twilight 6:50 AM MDT 7:42 PM MDT
Nautical Twilight 6:19 AM MDT 8:13 PM MDT
Astronomical Twilight 5:47 AM MDT 8:45 PM MDT
Moon 9:50 AM MDT (3/16) No Moon Set
Length of Visible Light 12h 52m
Length of Day
11h 59m
Waxing Crescent, 23% of the Moon is Illuminated
Mar 16
Waxing Crescent
Mar 19
First Quarter
Mar 27
Full
Apr 2
Last Quarter
Apr 10
New

Hourly Weather History & Observations

Time (MDT) Temp. Windchill Dew Point Humidity Pressure Visibility Wind Dir Wind Speed Gust Speed Precip Events Conditions
12:53 AM 36.0 °F 29.0 °F 24.1 °F 62% 29.85 in 10.0 mi SSW 9.2 mph - N/A   Clear
1:53 AM 36.0 °F 32.1 °F 24.1 °F 62% 29.83 in 10.0 mi South 4.6 mph - N/A   Overcast
2:53 AM 36.0 °F - 24.1 °F 62% 29.83 in 10.0 mi Calm Calm - N/A   Overcast
3:53 AM 37.9 °F 33.5 °F 23.0 °F 55% 29.83 in 10.0 mi SE 5.8 mph - N/A   Overcast
4:53 AM 39.0 °F 32.8 °F 26.1 °F 60% 29.83 in 10.0 mi SSE 9.2 mph - 0.00 in Rain Light Rain
5:53 AM 37.0 °F - 28.0 °F 70% 29.84 in 10.0 mi Calm Calm - 0.00 in   Overcast
6:53 AM 39.0 °F 31.4 °F 30.0 °F 70% 29.83 in 10.0 mi SE 12.7 mph - 0.00 in   Overcast
7:53 AM 39.0 °F 33.4 °F 30.0 °F 70% 29.86 in 10.0 mi SE 8.1 mph 18.4 mph N/A   Overcast
8:53 AM 39.9 °F 31.1 °F 30.0 °F 68% 29.84 in 10.0 mi SE 17.3 mph 21.9 mph N/A   Overcast
9:53 AM 41.0 °F 34.3 °F 28.0 °F 60% 29.85 in 10.0 mi SE 11.5 mph - N/A   Overcast
10:18 AM 39.2 °F 32.5 °F 28.4 °F 65% 30.03 in 6.0 mi WSW 10.4 mph - 0.00 in Rain Light Rain
10:53 AM 39.9 °F 37.8 °F 28.9 °F 65% 29.87 in 8.0 mi Variable 3.5 mph - 0.00 in   Overcast
11:53 AM 41.0 °F 37.1 °F 28.9 °F 62% 29.86 in 10.0 mi SSE 5.8 mph - N/A   Overcast
12:53 PM 42.1 °F 36.6 °F 30.0 °F 62% 29.83 in 10.0 mi SSE 9.2 mph - 0.00 in   Overcast
1:53 PM 43.0 °F 38.8 °F 28.9 °F 58% 29.80 in 10.0 mi Variable 6.9 mph 16.1 mph N/A   Overcast
2:53 PM 44.1 °F 38.6 °F 30.0 °F 58% 29.77 in 6.0 mi North 10.4 mph - N/A   Haze
3:25 PM 35.6 °F 28.0 °F 32.0 °F 87% 29.96 in 3.0 mi North 10.4 mph - 0.00 in Rain Light Rain
3:53 PM 36.0 °F - 33.1 °F 89% 29.83 in 6.0 mi Calm Calm - 0.03 in Rain Light Rain
4:53 PM 37.0 °F 34.5 °F 33.1 °F 86% 29.81 in 10.0 mi Variable 3.5 mph - 0.00 in   Overcast
5:53 PM 37.9 °F 34.4 °F 32.0 °F 79% 29.81 in 10.0 mi SE 4.6 mph - 0.00 in   Mostly Cloudy
6:53 PM 37.0 °F 31.0 °F 30.9 °F 79% 29.80 in 10.0 mi South 8.1 mph - N/A   Scattered Clouds
7:53 PM 36.0 °F 32.1 °F 28.9 °F 76% 29.79 in 10.0 mi South 4.6 mph - N/A   Clear
8:53 PM 35.1 °F 31.0 °F 28.0 °F 76% 29.79 in 10.0 mi SSW 4.6 mph - N/A   Clear
9:53 PM 34.0 °F 31.0 °F 28.9 °F 82% 29.81 in 10.0 mi SSW 3.5 mph - 0.00 in   Mostly Cloudy
10:53 PM 32.0 °F 28.7 °F 27.0 °F 82% 29.82 in 10.0 mi South 3.5 mph - N/A   Clear
11:53 PM 30.9 °F 26.2 °F 26.1 °F 82% 29.79 in 10.0 mi SSW 4.6 mph - N/A   Scattered Clouds